Previsão horária em Cerny Dul

Hoje, 31 Julho, Sábado

Tempo Temperatura Precipitação Vento Pressão Humidade
00:00 +16°C° 0 mm 1 m/s 691 mmHg 73%
01:00 +16°C° 0 mm 1 m/s 691 mmHg 75%
02:00 +15°C° 0.1 mm 1 m/s 691 mmHg 78%
03:00 +15°C° 0.1 mm 1 m/s 691 mmHg 81%
04:00 +15°C° 0.1 mm 1 m/s 690 mmHg 84%
05:00 +16°C° 0 mm 1 m/s 691 mmHg 83%
06:00 +16°C° 0 mm 2 m/s 691 mmHg 82%
07:00 +17°C° 0 mm 2 m/s 692 mmHg 82%
08:00 +18°C° 0 mm 3 m/s 692 mmHg 75%
09:00 +19°C° 0 mm 4 m/s 692 mmHg 69%
10:00 +20°C° 0 mm 5 m/s 692 mmHg 62%
11:00 +21°C° 0 mm 5 m/s 692 mmHg 55%
12:00 +21°C° 0 mm 5 m/s 693 mmHg 49%
13:00 +22°C° 0 mm 5 m/s 693 mmHg 42%
14:00 +22°C° 0 mm 5 m/s 693 mmHg 42%
15:00 +22°C° 0 mm 5 m/s 692 mmHg 42%
16:00 +22°C° 0 mm 5 m/s 692 mmHg 41%
17:00 +20°C° 0 mm 4 m/s 692 mmHg 48%
18:00 +19°C° 0 mm 3 m/s 692 mmHg 55%
19:00 +17°C° 0 mm 2 m/s 692 mmHg 63%
20:00 +16°C° 0 mm 1 m/s 692 mmHg 65%
21:00 +15°C° 0 mm 1 m/s 692 mmHg 68%
22:00 +13°C° 0 mm 1 m/s 692 mmHg 71%
23:00 +13°C° 0 mm 1 m/s 692 mmHg 73%

Amanhã, 1 Agosto, Domingo

Tempo Temperatura Precipitação Vento Pressão Humidade
00:00 +13°C° 0 mm 1 m/s 692 mmHg 74%
01:00 +12°C° 0 mm 1 m/s 692 mmHg 76%
02:00 +12°C° 0 mm 1 m/s 692 mmHg 76%
03:00 +12°C° 0 mm 1 m/s 691 mmHg 76%
04:00 +12°C° 0 mm 1 m/s 691 mmHg 76%
05:00 +13°C° 0.2 mm 1 m/s 691 mmHg 77%
06:00 +12°C° 0.2 mm 0 m/s 691 mmHg 79%
07:00 +13°C° 0.2 mm 0 m/s 691 mmHg 80%
08:00 +14°C° 2.5 mm 1 m/s 691 mmHg 84%
09:00 +13°C° 2.5 mm 1 m/s 691 mmHg 88%
10:00 +13°C° 2.5 mm 1 m/s 691 mmHg 92%
11:00 +13°C° 0.9 mm 1 m/s 691 mmHg 92%
12:00 +13°C° 0.9 mm 1 m/s 691 mmHg 92%
13:00 +13°C° 0.9 mm 1 m/s 691 mmHg 92%
14:00 +14°C° 0.4 mm 1 m/s 691 mmHg 89%
15:00 +15°C° 0.4 mm 1 m/s 691 mmHg 85%
16:00 +15°C° 0.4 mm 1 m/s 691 mmHg 82%
17:00 +15°C° 0.1 mm 1 m/s 691 mmHg 84%
18:00 +14°C° 0.1 mm 1 m/s 691 mmHg 86%
19:00 +14°C° 0.1 mm 1 m/s 691 mmHg 88%
20:00 +14°C° 0 mm 1 m/s 691 mmHg 89%
21:00 +13°C° 0 mm 1 m/s 691 mmHg 90%
22:00 +13°C° 0 mm 1 m/s 691 mmHg 91%
23:00 +13°C° 0.4 mm 1 m/s 691 mmHg 91%

Depois de amanhã, 2 Agosto, Segunda-feira

Tempo Temperatura Precipitação Vento Pressão Humidade
00:00 +12°C° 0.4 mm 1 m/s 691 mmHg 92%
01:00 +12°C° 0.4 mm 1 m/s 691 mmHg 92%
02:00 +12°C° 0.3 mm 1 m/s 691 mmHg 93%
03:00 +12°C° 0.3 mm 1 m/s 691 mmHg 94%
04:00 +12°C° 0.3 mm 2 m/s 691 mmHg 94%
05:00 +12°C° 0.3 mm 2 m/s 692 mmHg 93%
06:00 +13°C° 0.3 mm 2 m/s 692 mmHg 92%
07:00 +13°C° 0.3 mm 2 m/s 692 mmHg 91%
08:00 +15°C° 0.3 mm 2 m/s 693 mmHg 83%
09:00 +16°C° 0.3 mm 2 m/s 693 mmHg 75%
10:00 +17°C° 0.3 mm 3 m/s 693 mmHg 67%
11:00 +17°C° 0.2 mm 3 m/s 694 mmHg 66%
12:00 +18°C° 0.2 mm 3 m/s 694 mmHg 65%
13:00 +18°C° 0.2 mm 3 m/s 694 mmHg 64%
14:00 +18°C° 0.4 mm 3 m/s 694 mmHg 67%
15:00 +18°C° 0.4 mm 3 m/s 694 mmHg 70%
16:00 +17°C° 0.4 mm 3 m/s 694 mmHg 73%
17:00 +16°C° 0.5 mm 2 m/s 694 mmHg 78%
18:00 +15°C° 0.5 mm 2 m/s 694 mmHg 83%
19:00 +14°C° 0.5 mm 1 m/s 694 mmHg 89%
20:00 +13°C° 0.1 mm 1 m/s 694 mmHg 90%
21:00 +12°C° 0.1 mm 1 m/s 694 mmHg 92%
22:00 +11°C° 0.1 mm 1 m/s 695 mmHg 93%
23:00 +11°C° 0 mm 1 m/s 695 mmHg 93%

3 Agosto, Terça-feira

Tempo Temperatura Precipitação Vento Pressão Humidade
00:00 +11°C° 0 mm 1 m/s 695 mmHg 93%
01:00 +10°C° 0 mm 1 m/s 695 mmHg 93%
02:00 +10°C° 0 mm 1 m/s 695 mmHg 92%
03:00 +10°C° 0 mm 1 m/s 695 mmHg 92%
04:00 +10°C° 0 mm 1 m/s 695 mmHg 92%
05:00 +11°C° 0 mm 1 m/s 695 mmHg 89%
06:00 +12°C° 0 mm 1 m/s 696 mmHg 86%
07:00 +13°C° 0 mm 1 m/s 696 mmHg 83%
08:00 +15°C° 0 mm 1 m/s 696 mmHg 76%
09:00 +18°C° 0 mm 1 m/s 696 mmHg 68%
10:00 +18°C° 0 mm 2 m/s 696 mmHg 60%
11:00 +19°C° 0.1 mm 2 m/s 696 mmHg 58%
12:00 +19°C° 0.1 mm 2 m/s 696 mmHg 57%
13:00 +20°C° 0.1 mm 2 m/s 696 mmHg 55%
14:00 +20°C° 0.1 mm 2 m/s 696 mmHg 55%
15:00 +20°C° 0.1 mm 2 m/s 695 mmHg 55%
16:00 +21°C° 0.1 mm 1 m/s 695 mmHg 55%
17:00 +20°C° 0 mm 1 m/s 695 mmHg 60%
18:00 +19°C° 0 mm 1 m/s 694 mmHg 65%
19:00 +18°C° 0 mm 1 m/s 694 mmHg 70%
20:00 +16°C° 0 mm 1 m/s 694 mmHg 71%
21:00 +15°C° 0 mm 1 m/s 694 mmHg 72%
22:00 +15°C° 0 mm 1 m/s 693 mmHg 74%
23:00 +14°C° 0.2 mm 1 m/s 693 mmHg 76%

4 Agosto, Quarta-feira

Tempo Temperatura Precipitação Vento Pressão Humidade
00:00 +14°C° 0.2 mm 1 m/s 693 mmHg 79%
01:00 +12°C° 0.2 mm 0 m/s 693 mmHg 82%
02:00 +13°C° 0.7 mm 1 m/s 693 mmHg 85%
03:00 +13°C° 0.7 mm 1 m/s 692 mmHg 89%
04:00 +13°C° 0.7 mm 1 m/s 692 mmHg 93%
05:00 +13°C° 2.2 mm 1 m/s 692 mmHg 94%
06:00 +12°C° 2.2 mm 1 m/s 693 mmHg 96%
07:00 +12°C° 2.2 mm 1 m/s 693 mmHg 98%
08:00 +13°C° 2.9 mm 1 m/s 693 mmHg 96%
09:00 +13°C° 2.9 mm 1 m/s 693 mmHg 95%
10:00 +13°C° 2.9 mm 1 m/s 693 mmHg 94%
11:00 +14°C° 0.4 mm 1 m/s 693 mmHg 88%
12:00 +15°C° 0.4 mm 1 m/s 693 mmHg 83%
13:00 +16°C° 0.4 mm 1 m/s 693 mmHg 77%
14:00 +16°C° 0.7 mm 2 m/s 693 mmHg 75%
15:00 +17°C° 0.7 mm 2 m/s 693 mmHg 73%
16:00 +17°C° 0.7 mm 3 m/s 693 mmHg 71%
17:00 +16°C° 0.2 mm 2 m/s 693 mmHg 75%
18:00 +15°C° 0.2 mm 2 m/s 693 mmHg 79%
19:00 +14°C° 0.2 mm 1 m/s 693 mmHg 83%
20:00 +13°C° 0 mm 1 m/s 693 mmHg 84%
21:00 +12°C° 0 mm 1 m/s 692 mmHg 86%
22:00 +12°C° 0 mm 1 m/s 692 mmHg 88%
23:00 +11°C° 0 mm 1 m/s 692 mmHg 89%

5 Agosto, Quinta-feira

Tempo Temperatura Precipitação Vento Pressão Humidade
00:00 +11°C° 0 mm 1 m/s 692 mmHg 91%
01:00 +11°C° 0 mm 1 m/s 692 mmHg 92%
02:00 +11°C° 0 mm 1 m/s 692 mmHg 93%
03:00 +10°C° 0 mm 1 m/s 692 mmHg 94%
04:00 +10°C° 0 mm 1 m/s 692 mmHg 95%
05:00 +11°C° 0.1 mm 1 m/s 692 mmHg 94%
06:00 +12°C° 0.1 mm 1 m/s 692 mmHg 93%
07:00 +12°C° 0.1 mm 1 m/s 692 mmHg 92%
08:00 +13°C° 0.1 mm 1 m/s 692 mmHg 89%
09:00 +14°C° 0.1 mm 2 m/s 692 mmHg 86%
10:00 +15°C° 0.1 mm 2 m/s 692 mmHg 83%
11:00 +16°C° 0.4 mm 2 m/s 692 mmHg 79%
12:00 +16°C° 0.4 mm 2 m/s 692 mmHg 76%
13:00 +17°C° 0.4 mm 2 m/s 692 mmHg 72%
14:00 +17°C° 0.5 mm 2 m/s 692 mmHg 73%
15:00 +17°C° 0.5 mm 2 m/s 691 mmHg 74%
16:00 +17°C° 0.5 mm 2 m/s 691 mmHg 75%
17:00 +16°C° 0.4 mm 2 m/s 691 mmHg 80%
18:00 +15°C° 0.4 mm 1 m/s 691 mmHg 84%
19:00 +14°C° 0.4 mm 1 m/s 690 mmHg 89%
20:00 +13°C° 0 mm 1 m/s 690 mmHg 90%
21:00 +12°C° 0 mm 1 m/s 690 mmHg 92%
22:00 +12°C° 0 mm 1 m/s 690 mmHg 93%
23:00 +11°C° 0 mm 1 m/s 690 mmHg 93%
Mostrar mais

Necessitamos do seu Consentimento

A Meteoprog e os seus Fornecedores de Serviços podem armazenar e aceder a dados pessoais como cookies, identificadores do dispositivo ou outras tecnologias semelhantes existentes no seu dispositivo e processar estes dados para personalizar conteúdos e anúncios, assim como funcionalidades nas redes sociais e análise de tráfego.

  • Armazenar e/ou aceder a informações no seu dispositivo

    Os cookies, identificadores do dispositivo ou outras informações podem ser armazenados ou acedidos no seu dispositivo, para os fins acima indicados.

  • Anúncios e conteúdos personalizados, medição de anúncios e conteúdos, dados sobre o público-alvo e desenvolvimento de produtos

    Os anúncios e os conteúdos podem ser personalizados com base num perfil. Podem ser adicionados dados adicionais para uma maior personalização dos anúncios e dos conteúdos. A eficácia dos anúncios e dos conteúdos pode ser medida. Podem ser obtidas informações sobre o público que visualizou os anúncios e os conteúdos. Estes dados podem ser usados para desenvolver ou melhorar sistemas, softwares ou a experiência do utilizador.

Ao clicar em "Eu concordo”, permitirá o uso de cookies, identificadores do dispositivo e web beacons mencionados ou outras tecnologias semelhantes. As configurações do navegador do seu dispositivo podem ser alteradas.

Para certos fins, podem ser invocados interesses legítimos ao invés de consentimento. Pode ler mais informação sobre este assunto na nossa Política de Privacidade e Cookies.